User: anonymous   Login
Location: El Centro
(32.7920°N, 115.5620°W)
Time: 00:37:51
(UTC-07:00)
Language:

Hamsat - Orbit

View from above orbital plane
View from above orbital plane
View from above satellite
View from above satellite

Ground track
Ground track

The orbit data is extracted from the following two-line orbital elements,

1 28650U 05017B   17296.86866060 +.00000504 +00000-0 +59295-4 0  9992
2 28650 097.6672 266.9574 0024917 066.0889 294.2935 14.88779101675243
Epoch (UTC): 23 October 2017 20:50:52
Eccentricity: 0.0024917
inclination: 97.6672°
perigee height: 584 km
apogee height: 619 km
right ascension of ascending node: 266.9574°
argument of perigee: 66.0889°
revolutions per day: 14.88779101
mean anomaly at epoch: 294.2935°
orbit number at epoch: 67524

The dashed part of the orbit path shows where the satellite is in the earth's shadow,  

DLR